CW9507 Weather Reports


time (UTC)temp
C
wind
direction
speed
KPH
gust
KPH
rain 1hr
cm
rain 24hr
cm
rain mn
cm
humidity
%
barometer
mb
20260506221509 12 257 0.0 8.0 0.00 0.15 0.15 46 1012.1
20260506220013 12 15 0.0 0.0 0.00 0.15 0.15 45 1012.1
20260506214506 12 273 0.0 3.2 0.03 0.15 0.15 46 1012.1
20260506213004 12 254 0.0 3.2 0.03 0.15 0.15 44 1012.1
20260506211505 12 290 0.0 1.6 0.03 0.15 0.15 47 1012.0
20260506210007 12 277 0.0 1.6 0.03 0.15 0.15 49 1012.1
20260506204502 12 308 0.0 1.6 0.00 0.13 0.13 49 1012.0
20260506203001 12 336 0.0 11.3 0.00 0.13 0.13 47 1012.0
20260506201502 12 313 0.0 1.6 0.00 0.13 0.13 45 1012.1
20260506200106 12 125 0.0 1.6 0.00 0.13 0.13 50 1012.1
20260506194605 11 257 0.0 4.8 0.00 0.15 0.13 51 1012.2
20260506193059 11 329 0.0 9.7 0.00 0.15 0.13 49 1012.3
20260506191607 11 148 0.0 0.0 0.00 0.15 0.13 51 1012.5
20260506190055 11 205 0.0 9.7 0.00 0.15 0.13 52 1012.6
20260506184554 11 228 0.0 11.3 0.05 0.18 0.13 48 1012.5
20260506183101 11 238 0.0 9.7 0.05 0.18 0.13 47 1012.4
20260506181600 11 331 0.0 6.4 0.05 0.18 0.13 49 1012.4
20260506180112 11 236 0.0 8.0 0.05 0.18 0.13 48 1012.2
20260506174552 11 310 0.0 8.0 0.00 0.20 0.08 51 1012.4
20260506173119 11 247 0.0 12.9 0.00 0.20 0.08 51 1012.6
20260506171651 11 5 0.0 11.3 0.00 0.20 0.08 50 1012.6
20260506170048 11 229 0.0 3.2 0.00 0.20 0.08 48 1012.5
20260506164548 11 221 0.0 12.9 0.00 0.25 0.08 51 1012.5
20260506163052 12 347 0.0 11.3 0.00 0.25 0.08 47 1012.4
20260506161554 12 254 0.0 12.9 0.00 0.25 0.08 47 1012.3
20260506160045 11 295 0.0 9.7 0.00 0.25 0.08 48 1012.2
20260506154542 12 237 0.0 8.0 0.00 0.36 0.08 48 1012.1
20260506153139 11 220 0.0 1.6 0.03 0.36 0.08 52 1012.0
20260506151538 11 333 0.0 6.4 0.05 0.36 0.08 53 1012.0
20260506150035 11 281 0.0 9.7 0.05 0.36 0.08 54 1011.8
20260506144540 11 270 0.0 1.6 0.05 0.38 0.08 54 1011.9
20260506143031 11 60 0.0 14.5 0.03 0.36 0.05 54 1011.5
20260506141534 10 287 0.0 1.6 0.03 0.33 0.03 57 1011.6
20260506140024 10 324 0.0 3.2 0.03 0.33 0.03 57 1011.7
20260506134523 10 275 0.0 4.8 0.03 0.48 0.03 59 1011.3
20260506133021 10 252 0.0 14.5 0.03 0.48 0.03 64 1011.1
20260506131525 10 277 0.0 0.0 0.00 0.46 0.00 68 1011.0
20260506130017 8 228 0.0 0.0 0.00 0.46 0.00 72 1010.8
20260506124511 8 237 0.0 1.6 0.00 0.56 0.00 72 1010.8
20260506123009 8 288 0.0 9.7 0.00 0.56 0.00 74 1010.5
20260506121505 7 323 0.0 4.8 0.00 0.56 0.00 80 1010.4
20260506120002 6 306 0.0 0.0 0.00 0.56 0.00 86 1010.1
20260506114502 6 228 0.0 0.0 0.00 0.91 0.00 88 1010.0
20260506113101 6 228 0.0 0.0 0.00 0.91 0.00 88 1009.9
20260506111600 6 228 0.0 0.0 0.00 0.91 0.00 89 1009.7
20260506110055 6 228 0.0 0.0 0.00 0.91 0.00 89 1009.3
20260506104557 6 222 0.0 0.0 0.00 0.99 0.00 90 1009.1
20260506103050 6 222 0.0 0.0 0.00 0.99 0.00 91 1009.0
20260506101548 6 219 0.0 0.0 0.00 0.99 0.00 92 1008.9
20260506100047 6 219 0.0 0.0 0.00 0.99 0.00 91 1008.6
20260506094551 7 219 0.0 0.0 0.00 0.99 0.00 92 1008.4
20260506093045 7 219 0.0 0.0 0.00 0.99 0.00 92 1008.6
20260506091545 7 219 0.0 0.0 0.00 0.99 0.00 92 1008.4
20260506090044 7 219 0.0 0.0 0.00 0.99 0.00 92 1008.2
20260506084546 7 219 0.0 0.0 0.00 1.04 0.00 93 1008.2
20260506083043 7 219 0.0 0.0 0.00 1.04 0.00 93 1008.3
20260506081541 7 219 0.0 0.0 0.00 1.04 0.00 93 1008.3
20260506073040 7 219 0.0 0.0 0.00 1.12 0.00 93 1008.2
20260506071538 7 220 0.0 0.0 0.00 1.12 0.00 93 1008.4
20260506061533 7 226 0.0 0.0 0.00 1.12 0.00 93 1008.6
20260506044537 7 223 0.0 0.0 0.00 1.17 0.00 93 1008.6
20260506043025 7 223 0.0 0.0 0.00 1.17 0.00 93 1008.6
20260506041537 7 223 0.0 0.0 0.00 1.17 0.00 93 1008.5
20260506040022 7 223 0.0 0.0 0.00 1.17 0.00 93 1008.6
20260506034520 7 223 0.0 0.0 0.00 1.68 1.17 93 1008.4
20260506033020 7 223 0.0 0.0 0.00 1.68 1.17 93 1008.0
20260506031520 7 223 0.0 0.0 0.00 1.68 1.17 93 1008.1
20260506030018 7 223 0.0 0.0 0.00 1.68 1.17 92 1008.2
20260506024519 7 223 0.0 0.0 0.00 1.80 1.17 92 1008.4
20260506023019 7 223 0.0 0.0 0.00 1.80 1.17 92 1008.5
20260506021516 7 223 0.0 0.0 0.00 1.80 1.17 92 1008.3
20260506020010 8 223 0.0 0.0 0.00 1.80 1.17 92 1008.4
20260506014507 8 223 0.0 0.0 0.00 1.96 1.17 92 1008.2
20260506013006 9 223 0.0 0.0 0.00 1.96 1.17 93 1007.9
20260506011512 9 223 0.0 0.0 0.00 1.96 1.17 92 1007.7
20260506010002 9 223 0.0 0.0 0.00 1.98 1.17 92 1007.5
20260506004504 9 223 0.0 0.0 0.00 1.98 1.17 92 1007.5
20260506003101 9 223 0.0 0.0 0.00 1.98 1.17 92 1007.7
20260506001602 9 223 0.0 0.0 0.00 1.98 1.17 92 1007.5
20260505234558 10 144 0.0 0.0 0.00 2.03 1.17 91 1007.2
20260505233057 10 179 0.0 1.6 0.00 2.03 1.17 91 1006.9
20260505231556 10 160 0.0 0.0 0.00 2.03 1.17 90 1006.8
20260505230100 10 164 0.0 1.6 0.00 2.03 1.17 89 1006.8
20260505224554 10 175 0.0 0.0 0.00 2.36 1.17 88 1006.9
20260505223053 10 153 0.0 0.0 0.00 2.36 1.17 88 1006.8